Location: Lake Arresoe
(56.0000°N, 12.5000°E)
Time: 18:16:10
(UTC+01:00)

Cosmos 2058 - Pass Details

Date: 19 October 2019
Orbit: 562 x 584 km, 82.5° (Epoch: 21 November)

Event Time Altitude Azimuth Distance (km) Brightness Sun altitude
Rises 20:56:34 0° 342° (NNW) 2,826 7.0 -25.1°
Reaches altitude 10° 20:58:54 10° 334° (NNW) 1,920 6.2 -25.4°
Maximum altitude 21:02:46 35° 268° (W) 948 4.4 -25.9°
Enters shadow 21:05:09 19° 214° (SW) 1,395 4.9 -26.2°
